Torna al catalogo

GLOBALSTAR M003

AttivoComunicazioniLEO
NORAD 25165·PAYLOAD·🇺🇸 United States

Lanciato Feb 14, 1998 da Cape Canaveral Space Force Station

Loading…

Prossimi Passaggi (prossime 24 ore)

TLE

AggiornatoSource: Space-Track

Epoca: Sep 13, 2026, 17:12 UTC

1 25165U 98008D   26256.71734598 -.00000135  00000-0 -48136-3 0  9995
2 25165  51.9814 352.2485 0008711 124.1839  42.3086 12.11994355288217

Traccia GLOBALSTAR M003 in tempo reale con AllMySat

Download on the App Store